Temp
8 8 8 8 8 9 9 9 9 9 9 9 9 9 9 10 10 10 10 11 11 11 11 11 11 11 12 12 12 12 12 12 13 13 13 14 15 16 16 16 17 17 17 18 18 18 19 19 20 20 19 20 20 22 24 25 26 25 24 22 22 23 24 26 27 26 26 26 28 27 28 28 28 27 27 27 27 27 27 27 28 27 27 25 24 24 23 22
8 8 8 8 8 8 9 9 9 9 9 9 9 9 9 9 10 10 10 10 11 11 11 11 11 11 11 12 12 12 12 12 13 13 14 15 15 16 16 16 16 17 17 17 18 19 19 19 20 20 19 19 20 21 22 24 25 24 24 23 23 25 26 27 27 26 25 26 28 28 28 28 28 28 27 27 27 27 27 27 27 27 25 24 24 23 22 22
8 8 8 8 8 8 8 9 9 9 9 9 9 9 9 9 9 10 10 10 10 10 11 11 11 11 11 11 12 12 12 12 13 13 15 15 16 16 16 16 17 17 17 17 17 18 19 20 21 20 19 19 20 20 20 22 24 24 24 23 24 26 27 26 27 27 26 26 28 28 28 27 28 28 27 27 27 27 27 27 27 27 26 23 23 23 22 22
8 8 8 8 8 8 8 8 8 9 9 9 9 9 9 9 9 10 10 10 10 10 10 11 11 11 11 11 12 12 12 12 14 15 16 16 16 16 16 16 17 17 17 17 17 18 19 20 21 21 19 19 19 20 20 20 22 24 24 23 25 27 26 26 28 28 27 27 28 28 27 26 28 28 27 27 27 27 28 28 28 27 27 25 23 23 22 22
8 8 8 8 8 8 8 8 8 8 8 9 9 9 9 9 9 9 10 10 10 10 10 11 11 11 11 11 12 12 12 13 15 16 16 16 16 16 16 17 17 17 17 17 17 18 18 20 21 21 19 19 19 20 20 20 20 21 24 24 26 27 27 28 27 26 27 27 27 27 26 26 28 28 28 27 27 28 28 29 29 29 29 26 24 23 22 22
7 8 8 8 8 8 8 8 8 8 8 8 9 9 9 9 9 9 9 10 10 10 10 10 11 11 11 11 11 11 12 14 15 15 15 16 16 16 16 17 17 17 17 16 17 18 19 20 20 20 20 20 20 20 21 22 20 20 22 24 26 26 26 28 27 25 26 26 26 27 26 26 27 27 28 27 27 28 28 28 29 29 29 27 25 24 23 22
7 8 8 8 8 8 8 8 8 8 8 8 8 9 9 9 9 9 9 10 10 10 10 10 11 11 11 11 11 11 12 14 15 15 15 16 16 16 16 16 16 16 16 16 17 17 18 19 20 20 20 20 20 21 21 22 21 19 21 24 25 26 26 27 26 25 25 26 26 27 26 26 26 26 28 27 28 29 28 28 28 28 28 27 25 24 24 23
7 7 8 7 7 8 8 8 8 8 8 8 8 9 9 9 9 9 9 9 10 10 10 10 10 10 10 10 11 11 11 13 15 15 15 15 16 16 15 15 15 15 16 17 17 17 18 19 20 21 20 21 21 22 22 22 22 21 23 24 25 26 26 27 26 25 25 25 26 26 25 26 26 27 27 27 28 29 29 28 28 28 28 27 26 25 25 24
7 7 7 7 7 7 8 8 8 8 8 8 8 8 9 9 9 9 9 9 10 10 10 10 10 10 10 10 11 11 13 14 15 15 15 15 16 15 14 15 15 15 16 17 17 18 18 19 20 21 21 21 22 22 23 22 22 23 24 24 25 25 26 26 26 26 25 25 26 25 25 25 26 26 26 27 27 28 29 28 27 27 27 27 27 26 25 25
7 7 7 7 7 7 7 8 8 8 8 8 8 8 8 9 9 9 9 9 9 10 10 10 10 10 10 10 10 11 14 16 16 16 15 15 15 15 14 15 15 15 16 17 17 18 18 19 20 21 20 21 21 22 22 22 23 25 25 24 25 25 26 26 26 26 25 26 26 25 24 25 26 26 25 27 28 28 28 28 28 27 27 27 27 27 26 26
7 7 7 7 7 7 7 7 8 8 8 8 8 8 8 8 9 9 9 9 9 9 10 10 10 10 10 10 10 12 15 16 16 16 16 15 15 15 15 15 15 16 16 17 18 18 18 19 19 20 20 20 21 21 22 23 24 25 25 24 24 24 25 26 26 25 25 25 26 25 24 25 26 25 25 27 28 28 28 28 28 27 27 27 27 27 27 27
7 7 7 7 7 7 7 7 7 8 8 8 8 8 8 8 9 9 9 9 9 9 9 9 10 10 10 10 10 13 15 15 16 16 16 15 15 15 16 15 16 16 16 17 18 18 18 18 17 17 18 19 20 21 21 23 23 24 23 23 23 23 24 25 25 25 25 24 26 25 24 24 24 25 26 27 27 27 27 28 28 28 28 27 27 28 27 27
6 7 7 7 7 7 7 7 7 7 8 8 8 8 8 8 8 9 9 9 9 9 9 9 9 9 9 10 11 13 14 15 15 15 16 15 15 15 15 16 16 16 16 17 17 18 17 17 15 15 16 17 19 20 20 22 23 23 23 22 22 22 22 24 25 25 25 24 26 25 22 22 24 25 26 27 27 27 26 27 27 28 28 28 28 28 27 27
6 6 6 6 7 7 7 7 7 7 8 8 8 8 8 8 8 8 8 8 9 9 9 9 9 9 9 10 13 13 14 14 15 15 15 15 15 15 15 15 16 16 16 17 17 17 17 16 15 15 15 15 17 18 19 21 22 22 22 21 21 20 21 24 25 25 24 25 26 24 21 22 25 26 27 27 27 26 26 26 27 27 28 28 28 28 28 27
6 6 6 6 6 7 7 7 7 7 7 8 8 8 8 8 8 8 8 8 8 8 9 9 9 9 9 11 13 13 13 14 14 15 15 16 16 15 15 15 15 16 16 16 16 16 16 16 15 14 15 15 16 17 18 20 21 21 20 20 20 20 21 23 25 25 24 25 26 24 21 22 24 26 27 28 27 27 26 26 27 27 28 28 28 28 28 28
5 5 5 6 6 6 7 7 7 7 7 7 8 8 8 8 8 8 8 8 8 8 8 8 9 9 9 11 13 13 13 14 14 15 15 16 16 16 15 15 15 15 15 15 15 15 16 16 15 14 15 15 16 16 17 18 19 21 20 19 20 20 20 22 24 25 25 25 25 24 22 22 24 26 27 28 27 27 26 27 27 27 28 28 28 28 28 28
5 5 5 5 6 6 6 6 7 7 7 7 7 8 8 8 8 8 8 8 8 8 8 9 9 9 9 11 12 12 13 14 14 15 15 15 16 16 15 15 15 15 14 14 14 14 15 15 15 15 15 15 16 16 16 16 18 19 20 19 20 21 21 21 23 25 25 25 24 24 23 23 24 25 26 27 27 27 27 27 27 28 28 28 28 28 28 28
5 5 5 5 6 6 6 6 7 7 7 7 7 8 8 8 8 8 8 8 8 8 8 8 9 9 10 11 12 13 14 14 14 15 15 15 15 16 15 14 15 14 14 14 14 14 14 14 15 15 15 15 15 16 16 16 17 19 20 19 20 21 21 21 22 24 25 25 24 24 23 23 24 25 25 26 27 27 27 27 27 27 27 28 28 28 28 28
5 5 5 5 5 6 6 6 6 7 7 7 7 7 8 8 8 8 8 8 8 8 9 9 9 9 11 12 12 13 14 14 15 15 15 15 15 15 14 13 13 14 13 14 14 14 14 14 14 15 15 15 16 16 16 17 18 19 20 20 20 20 21 22 23 24 25 24 24 23 23 23 23 24 25 26 26 26 27 27 27 27 27 27 27 27 28 28
5 5 5 5 5 5 6 6 6 6 6 7 7 7 8 8 8 8 8 8 8 9 10 10 9 11 12 12 12 13 13 13 14 15 15 15 15 14 13 12 13 13 13 14 14 14 14 14 14 14 15 16 16 16 17 18 18 18 19 19 20 20 20 22 23 25 25 23 23 23 23 23 23 24 25 25 26 26 26 26 26 26 26 26 27 27 27 27
5 5 5 5 5 5 5 6 6 6 6 7 7 7 8 9 8 9 9 8 9 10 10 10 10 11 12 11 11 12 12 12 13 14 15 15 15 14 13 13 13 13 13 15 14 14 14 14 14 15 16 17 17 17 17 18 18 17 18 18 18 18 19 21 22 23 24 22 22 23 22 23 24 24 24 25 25 25 25 26 26 26 26 26 26 27 27 27
5 4 5 4 4 5 5 5 6 6 7 7 6 7 9 9 8 9 9 9 10 10 10 10 10 10 11 12 11 11 11 12 12 13 14 14 14 14 13 13 13 13 14 14 14 13 14 14 15 16 17 17 17 18 17 17 18 17 18 17 17 18 18 19 20 22 22 21 20 21 21 21 23 23 24 24 24 25 26 26 26 26 26 26 26 26 26 26
4 4 4 4 4 4 5 6 6 6 6 7 7 8 9 8 7 8 9 9 9 10 10 10 10 10 11 11 11 10 10 12 13 13 13 13 13 14 14 13 13 14 14 14 13 13 14 14 16 17 17 17 17 18 17 17 17 17 17 17 17 18 18 18 19 20 21 21 21 21 20 21 22 22 23 24 24 24 25 25 26 26 26 26 26 26 26 26
4 4 4 4 4 4 5 6 7 7 7 7 7 8 8 8 7 8 8 8 9 10 11 11 11 11 11 11 11 11 11 12 13 13 13 12 13 14 14 13 13 13 14 14 14 14 15 16 17 17 17 17 17 17 17 17 16 17 17 17 17 18 18 17 19 20 20 20 21 20 19 19 21 21 21 23 23 24 24 25 25 25 25 25 26 26 26 26
4 4 4 4 4 4 5 6 7 7 7 7 7 7 7 7 8 8 8 8 8 10 11 11 11 11 12 12 11 11 11 11 13 13 13 13 14 13 14 14 14 13 14 14 14 14 15 17 18 17 17 17 17 17 17 17 16 16 17 17 17 18 18 18 19 19 19 18 20 19 18 18 20 20 21 22 22 23 24 24 24 24 25 25 25 25 25 25
4 4 4 4 4 4 5 7 7 6 7 7 7 7 7 8 8 8 8 8 8 10 10 10 11 12 12 11 11 11 11 11 13 13 12 12 13 13 13 14 14 13 14 15 14 14 15 17 18 18 17 17 17 16 17 17 16 16 17 18 18 18 18 18 19 18 17 17 19 19 17 17 20 20 21 22 22 22 23 23 24 24 24 25 25 25 25 25
4 4 4 4 4 4 5 6 6 6 7 7 7 7 7 8 8 8 8 7 9 10 10 10 11 11 12 12 11 11 10 11 14 13 11 12 12 12 12 14 13 13 15 14 13 14 16 17 17 18 18 17 17 17 18 18 16 16 18 18 18 18 18 18 18 17 16 17 18 17 16 16 17 19 21 22 22 22 23 23 23 24 24 25 25 25 25 25
4 4 4 4 4 4 5 5 5 6 7 7 6 6 7 8 8 8 8 7 9 10 10 10 11 10 11 12 12 12 11 12 12 12 12 11 12 12 11 13 14 14 15 14 12 15 17 16 16 17 17 17 17 17 19 18 16 16 18 18 18 18 17 17 16 15 16 16 16 16 16 16 16 18 20 21 21 21 22 23 23 24 24 25 25 25 25 25
3 3 4 4 4 5 5 5 6 6 6 6 6 7 7 8 8 8 8 8 8 9 9 9 10 10 11 11 11 12 12 11 11 11 11 11 11 12 11 12 13 13 14 13 13 15 17 16 17 17 17 17 18 18 19 18 17 18 18 17 18 17 17 16 15 15 15 15 15 16 17 16 16 18 19 20 20 20 21 22 23 24 24 25 25 25 25 25
3 4 4 4 4 5 5 6 6 6 7 7 6 7 7 7 8 8 7 8 8 8 9 9 9 10 10 9 10 11 12 11 11 11 11 11 11 11 11 12 12 12 12 12 12 13 15 16 16 16 17 17 18 19 19 19 19 18 17 16 17 16 16 15 14 14 15 15 16 17 17 16 16 18 19 20 20 21 21 22 23 24 24 25 25 25 25 25
3 4 4 4 4 4 5 6 6 6 6 7 6 7 7 7 8 7 7 8 8 9 9 9 10 10 10 10 10 10 11 12 12 11 10 11 11 11 11 11 11 11 11 11 12 13 13 14 15 15 16 17 17 18 18 19 19 16 15 15 15 15 15 14 13 13 14 15 17 17 17 17 16 17 20 21 22 22 22 22 23 24 24 25 25 25 25 25
3 4 4 4 4 4 4 6 6 6 6 6 7 7 7 7 7 8 8 8 8 9 9 9 10 10 9 10 10 10 11 11 11 11 11 11 10 11 11 11 12 11 11 11 12 13 13 13 15 15 15 15 16 16 17 18 17 15 14 14 14 14 14 14 14 14 14 15 17 18 17 16 16 18 20 21 22 23 23 23 24 24 24 25 25 25 25 25
3 4 4 4 4 4 5 5 6 6 6 6 7 7 7 7 7 7 9 9 8 8 8 9 10 10 9 10 10 11 11 11 11 11 11 10 10 11 11 12 13 12 12 12 12 12 13 14 15 15 14 15 16 15 15 16 16 15 14 14 14 14 14 14 14 15 15 16 17 18 17 16 17 19 20 20 21 22 23 23 23 24 24 24 25 25 25 25
4 4 4 4 5 5 5 5 5 6 6 6 7 7 7 8 7 7 8 8 8 7 8 8 9 10 9 9 10 11 11 11 11 11 11 10 10 11 11 12 12 11 11 12 12 12 12 13 14 14 14 15 15 15 16 16 16 16 16 15 14 15 15 14 15 15 15 17 17 17 17 16 18 20 21 22 22 22 22 23 23 23 23 24 24 25 25 25
5 5 5 5 5 5 5 5 5 6 6 6 7 7 7 7 6 6 7 8 8 8 8 8 8 9 9 9 10 10 10 11 11 11 11 10 10 11 12 12 12 11 11 11 13 13 12 13 15 15 15 15 15 16 17 16 15 15 16 14 14 15 16 16 16 16 16 16 17 17 17 18 20 21 23 23 23 23 23 23 23 23 23 23 23 24 24 24
5 5 6 6 6 6 5 6 6 6 6 6 7 7 7 7 6 6 7 8 8 8 8 9 8 8 9 9 9 9 9 10 11 10 10 11 11 12 12 13 13 12 11 12 13 13 12 13 15 15 15 16 16 16 17 16 15 15 14 13 14 16 16 15 15 16 16 15 16 17 18 19 20 21 22 23 22 23 23 23 23 23 23 23 23 23 23 23
5 6 6 6 6 6 6 6 6 6 6 7 7 7 6 7 8 7 8 8 8 7 8 9 8 8 9 9 9 9 9 10 10 10 10 11 11 12 12 13 14 13 12 13 13 13 12 12 13 14 14 16 16 16 16 16 17 16 14 14 16 14 13 13 13 14 15 14 15 17 17 18 18 19 21 22 21 21 22 23 24 24 24 23 23 23 23 23
5 6 6 6 6 6 6 6 6 6 7 7 8 7 6 7 8 8 8 9 8 8 8 9 8 8 8 9 9 9 9 10 9 9 10 11 11 12 12 13 14 14 14 14 13 13 12 12 13 14 14 14 14 14 14 15 16 15 13 14 15 13 12 13 13 13 14 13 15 16 17 17 18 19 21 21 21 21 22 22 23 23 24 23 23 23 23 23
6 6 6 6 6 6 6 6 6 6 7 7 8 8 6 7 9 9 9 9 9 9 9 9 9 8 9 8 8 8 8 9 9 9 10 10 10 11 11 11 13 13 13 13 12 12 12 11 12 14 14 13 13 12 13 14 14 13 12 13 13 13 14 14 13 14 14 13 14 15 16 17 18 19 20 21 21 22 22 22 23 23 24 24 24 24 24 24
7 6 6 5 6 6 6 6 6 7 7 7 8 7 6 7 9 10 10 9 9 9 9 9 9 9 9 9 8 8 8 8 8 9 9 9 9 9 9 9 10 11 11 11 11 12 12 10 11 13 13 13 12 12 12 14 14 12 11 12 12 12 13 13 12 13 13 13 14 14 15 17 19 21 21 21 22 22 22 22 22 22 22 22 23 23 22 22
7 7 6 5 6 6 6 7 7 7 8 8 7 7 7 8 9 9 10 10 10 9 9 9 9 9 10 9 9 9 8 8 8 8 8 9 9 9 10 9 9 9 10 9 10 10 10 10 10 11 12 12 12 13 14 14 14 12 11 12 12 12 12 12 12 13 13 13 13 14 14 16 20 21 21 21 21 21 21 22 21 21 21 20 21 20 19 19
7 6 5 5 5 6 6 7 7 8 8 7 7 8 8 9 9 8 9 10 10 10 10 9 9 9 9 9 9 9 9 9 8 8 8 9 9 9 10 10 9 10 9 9 9 9 9 9 9 10 12 12 13 14 14 14 14 13 12 12 12 12 12 12 12 13 13 13 14 14 13 15 19 20 20 20 20 19 19 20 19 19 20 20 19 19 18 18
6 5 5 5 5 6 6 7 8 8 7 6 7 8 8 8 8 8 9 10 10 10 10 9 9 9 9 9 9 10 10 10 9 9 9 9 9 10 11 11 10 10 10 9 9 9 8 9 9 10 11 12 13 14 14 13 14 13 12 12 12 12 12 12 12 12 12 12 13 12 12 14 18 19 18 18 18 17 18 19 18 18 19 19 19 19 18 18
5 5 5 5 6 6 6 6 7 7 7 6 7 8 8 8 8 8 8 9 9 9 9 9 9 9 9 9 9 9 9 9 10 10 10 10 10 10 11 11 10 10 11 10 10 10 9 9 9 9 9 11 12 12 12 12 12 12 12 12 12 12 12 12 12 11 11 11 12 11 11 14 16 17 17 17 17 17 18 18 17 17 17 18 18 18 18 18
5 6 6 6 6 6 6 5 6 7 7 6 6 7 7 8 8 8 8 8 9 9 8 9 9 9 9 9 9 9 9 9 9 10 10 10 10 10 10 10 10 10 11 10 10 10 9 9 9 8 8 9 10 11 11 11 11 11 11 11 11 11 11 11 11 11 11 12 12 11 11 13 15 16 16 16 16 16 16 16 16 17 17 17 17 17 18 17
6 6 6 6 6 6 6 6 6 7 7 6 6 7 7 7 8 8 8 8 8 8 8 8 9 9 9 9 8 8 9 9 9 9 9 9 10 10 10 10 10 10 11 10 11 10 9 9 9 8 8 9 9 10 11 10 10 10 10 11 11 11 11 11 10 9 10 11 11 11 12 12 13 14 14 14 14 14 15 15 15 16 16 17 17 17 17 17
6 6 5 5 6 6 6 7 7 7 7 6 6 6 7 7 7 8 8 7 8 8 8 8 9 8 8 9 8 8 9 9 9 9 9 9 10 10 10 10 10 11 11 10 10 10 8 8 9 9 9 9 9 10 10 10 10 10 10 10 10 11 11 10 9 9 10 10 8 10 12 10 11 12 12 13 13 13 14 14 15 15 16 16 16 16 17 17
6 5 4 4 5 6 6 6 7 6 6 6 7 7 7 7 7 7 7 7 7 7 7 8 8 8 8 9 8 8 8 8 8 8 9 9 9 10 10 10 10 11 11 10 10 10 8 8 9 9 9 9 9 9 10 10 9 10 10 10 10 10 10 10 10 10 11 9 9 11 11 10 10 12 12 13 13 13 14 15 15 15 15 16 16 16 16 16
4 5 5 4 4 5 6 6 6 6 6 7 7 7 6 7 7 8 8 7 7 7 7 7 7 8 9 9 9 8 8 8 8 8 8 9 9 9 9 9 10 11 11 10 10 11 9 8 9 9 9 9 9 9 10 9 9 9 10 10 10 10 10 10 10 11 11 10 10 11 11 11 12 12 12 13 14 14 14 15 15 15 15 15 15 16 16 16
3 3 3 3 5 6 6 6 6 7 7 7 7 7 6 6 6 7 7 7 7 7 7 7 7 8 8 8 8 8 8 8 8 8 8 8 8 9 8 9 9 10 10 10 10 10 9 8 9 9 8 8 9 9 10 9 9 9 9 10 10 10 10 10 10 11 11 10 11 11 10 11 12 13 13 14 14 14 14 14 15 15 15 15 15 16 16 16
2 2 1 2 4 6 6 6 6 6 6 6 5 5 5 5 5 5 6 7 7 7 7 6 7 7 7 8 7 7 7 7 7 8 8 8 8 8 8 9 9 8 9 9 9 10 9 8 9 9 7 7 9 9 9 9 9 9 9 9 10 10 10 10 10 11 11 10 10 10 10 10 12 13 13 13 14 14 14 14 14 15 15 15 15 16 16 16
2 2 2 2 4 6 6 6 7 6 5 4 4 4 4 4 4 4 6 7 7 7 6 6 6 6 6 7 7 5 5 6 6 7 8 8 8 8 8 8 8 8 8 8 9 9 9 8 8 7 6 7 8 9 9 9 8 7 9 10 10 10 10 10 10 11 11 11 10 10 10 11 13 13 13 13 14 14 14 14 15 15 15 15 15 16 16 16
Height
799 798 798 797 796 796 795 794 794 794 794 794 794 794 794 794 794 795 795 795 795 795 796 796 796 796 796 796 796 796 796 795 794 793 790 787 789 791 791 792 793 793 794 794 794 795 794 794 794 794 795 796 795 791 787 784 782 787 795 804 805 799 793 785 782 782 785 784 777 774 773 775 777 774 770 771 774 775 776 775 773 773 773 775 777 778 780 783
799 798 797 796 795 795 794 793 793 793 793 792 792 793 792 793 793 793 794 794 794 794 795 795 795 795 795 796 795 795 795 794 793 789 785 786 788 789 789 791 792 793 793 793 794 794 794 794 793 794 796 798 797 793 791 786 784 790 795 800 799 790 781 775 775 776 781 783 775 772 772 773 774 772 771 777 780 777 779 779 775 777 778 778 778 779 781 781
798 797 796 795 795 794 793 792 792 792 791 791 791 791 791 791 792 792 792 793 793 793 794 794 794 794 795 795 795 795 794 793 791 785 782 784 786 786 787 789 790 791 792 793 793 793 793 792 792 794 797 800 797 794 797 793 787 788 792 799 792 779 776 773 773 774 777 777 773 772 772 773 771 769 772 777 779 778 780 779 777 780 779 780 779 778 780 781
798 797 796 795 794 793 792 792 791 790 790 790 790 790 790 790 791 791 791 792 792 792 793 793 794 794 794 794 795 795 794 795 788 779 780 781 781 783 784 786 788 790 791 791 792 792 792 791 791 792 797 801 797 794 799 797 793 789 788 794 784 773 777 774 770 770 770 769 771 772 774 777 771 767 772 775 780 781 776 772 771 774 773 776 778 777 779 780
797 796 795 794 793 792 791 791 790 789 789 789 789 789 789 789 789 790 790 790 791 791 792 792 792 793 793 793 795 794 795 797 784 775 778 777 777 779 781 784 786 788 789 791 791 791 791 790 790 791 796 799 798 797 797 793 795 795 786 783 778 773 776 771 768 771 770 769 772 773 777 778 770 769 772 774 782 779 771 765 763 765 765 767 772 775 777 778
796 795 794 793 792 791 790 790 789 788 788 788 788 787 788 788 788 788 789 789 790 790 791 791 792 792 792 793 794 793 795 791 778 775 777 775 776 776 778 782 784 786 788 790 791 791 791 790 791 793 795 796 797 797 793 787 793 802 791 779 775 773 774 769 769 774 772 773 775 774 774 772 773 776 771 772 776 771 764 761 760 761 759 762 768 772 775 777
796 794 793 792 791 790 789 788 788 787 787 787 786 786 787 787 787 787 787 788 788 789 789 790 791 791 791 792 792 793 792 783 774 777 776 775 776 775 777 780 782 785 786 788 790 790 789 790 791 791 793 795 794 792 790 786 790 800 794 781 776 773 772 769 770 774 773 776 774 771 773 773 777 777 770 770 769 763 762 760 760 761 760 763 768 771 773 774
795 794 792 791 790 789 788 787 787 786 786 786 785 785 785 785 786 786 786 787 787 788 788 789 790 790 791 791 791 792 788 779 775 777 775 775 775 774 776 778 781 783 784 786 787 788 788 789 789 788 792 792 789 788 787 788 789 792 788 780 776 774 770 768 770 772 774 776 773 772 776 775 774 772 771 771 766 762 761 760 761 762 763 765 767 770 771 772
795 793 792 791 789 788 787 786 786 785 785 784 784 784 784 784 785 785 785 785 786 786 787 788 788 789 790 790 791 790 780 774 776 777 775 775 775 775 776 777 780 781 783 784 784 786 787 788 787 785 789 788 785 784 783 789 789 782 781 778 777 774 770 769 771 771 773 774 773 776 778 775 770 771 773 769 764 762 760 761 762 763 766 766 767 768 769 770
794 793 791 790 788 787 786 785 785 784 784 783 783 783 783 783 783 784 784 784 785 785 786 787 787 788 789 788 791 788 775 773 776 776 776 776 776 777 777 778 780 780 781 782 783 784 784 786 784 782 786 786 785 784 782 785 782 774 775 776 776 774 769 769 770 771 774 773 773 777 779 775 769 773 777 767 761 761 760 762 762 763 767 766 766 766 766 768
794 792 791 789 788 787 785 785 784 783 783 782 782 782 782 782 782 783 783 783 784 784 785 785 785 787 787 787 788 782 773 773 774 774 776 775 776 778 778 779 780 781 781 781 782 782 783 784 783 784 788 787 785 785 781 778 776 773 774 777 776 774 771 768 769 771 774 774 772 774 777 774 771 774 774 766 759 759 761 762 761 763 765 765 765 765 765 765
794 792 790 789 787 786 785 784 783 782 781 781 781 780 781 781 781 781 782 783 783 783 784 784 785 785 786 786 782 776 773 774 774 774 776 774 776 777 778 779 780 781 781 781 781 782 783 783 785 789 789 787 787 787 782 775 775 775 776 783 781 777 776 771 769 771 774 776 770 772 781 779 774 773 768 763 760 760 761 762 760 761 762 763 763 763 763 763
793 792 790 788 787 785 784 783 782 781 780 780 780 779 780 780 780 781 781 782 782 782 782 783 784 784 786 784 775 773 774 774 774 774 775 775 776 776 777 779 779 781 781 781 781 782 784 783 787 791 790 791 790 786 782 775 776 778 779 786 787 788 784 773 770 771 773 774 767 775 792 786 773 768 763 760 760 761 764 763 761 761 760 760 761 761 762 761
794 792 791 788 786 785 783 783 781 780 779 779 779 779 779 779 779 780 780 780 780 781 781 782 784 784 785 779 771 772 774 774 775 774 774 775 775 776 777 778 779 780 780 781 782 782 783 783 787 790 791 794 791 786 784 780 779 782 784 786 791 796 788 772 770 771 773 771 764 776 794 785 770 764 758 756 756 760 763 762 761 760 759 758 758 759 760 759
795 792 791 788 786 784 783 782 780 779 778 778 777 778 778 778 778 778 779 779 779 780 781 782 782 783 783 776 770 771 772 773 774 773 774 774 775 775 775 777 778 779 780 781 782 782 783 783 788 793 793 793 794 794 793 788 783 785 793 794 791 794 787 773 767 767 771 769 764 776 789 781 770 763 756 753 753 756 760 760 759 759 758 757 756 757 758 757
794 792 790 788 785 784 782 781 780 779 778 777 777 777 776 777 777 777 778 778 779 780 781 781 780 782 783 774 768 769 770 771 771 772 774 774 774 775 775 776 777 778 780 780 781 782 783 784 788 792 793 793 797 801 801 799 792 786 792 796 790 789 787 778 768 761 764 767 765 771 780 777 768 761 755 752 752 754 757 757 756 756 755 755 755 755 755 755
793 791 789 787 785 783 782 780 779 778 777 776 776 776 775 775 776 777 777 778 779 779 780 779 778 782 781 770 767 768 767 767 768 770 772 772 774 774 775 776 776 778 779 781 782 783 784 786 788 791 793 794 795 801 806 808 802 790 788 792 788 784 783 780 771 761 760 765 766 767 772 772 766 760 756 753 752 753 755 755 754 753 753 753 753 753 753 753
794 792 789 787 785 783 782 780 779 778 777 776 775 775 775 774 775 776 777 778 779 779 780 778 779 784 778 767 767 767 764 765 767 768 770 771 773 774 775 777 776 778 780 783 783 784 786 787 790 792 793 795 795 799 803 801 796 790 788 789 786 782 781 779 773 762 758 761 764 767 770 769 766 762 759 754 752 753 753 753 753 753 753 753 752 752 752 752
794 792 790 787 785 783 782 780 778 777 776 775 775 774 774 774 774 774 776 777 778 778 777 775 777 778 769 763 763 763 763 765 765 767 768 769 772 774 775 778 778 779 782 785 785 785 786 788 791 794 793 791 790 791 791 788 789 788 784 783 783 782 779 774 769 761 757 762 765 768 770 768 766 763 760 756 753 753 753 751 753 753 753 752 752 751 751 751
793 791 789 787 785 783 781 779 777 776 776 775 775 775 774 773 774 774 774 775 774 772 769 769 771 769 763 762 762 762 763 764 764 765 767 768 770 773 776 779 780 781 783 784 784 784 785 789 791 789 786 782 781 781 780 781 787 788 786 786 784 783 780 770 765 759 756 766 768 765 767 765 762 760 757 756 753 753 754 752 753 753 753 752 751 750 749 749
793 791 788 787 785 782 780 778 777 776 775 775 775 776 773 771 773 772 770 771 769 768 767 766 769 768 764 765 764 763 765 765 764 764 765 767 768 773 777 779 783 785 782 780 782 783 785 788 786 780 776 775 775 778 779 782 786 787 788 791 790 788 785 775 769 763 758 770 772 765 767 765 759 757 755 754 754 753 752 752 752 750 750 750 750 750 748 747
792 789 788 786 784 782 780 777 776 775 775 774 774 773 770 769 771 769 768 770 767 766 767 766 768 768 765 766 766 766 768 767 766 765 765 766 768 771 775 778 782 782 780 780 784 786 786 784 778 772 771 774 775 776 780 783 785 787 788 792 794 790 787 781 775 769 765 774 777 771 772 768 759 756 754 753 753 751 748 748 748 747 748 747 747 747 746 746
791 788 787 785 783 781 778 776 775 773 774 774 773 771 771 771 771 770 770 771 768 764 764 765 765 766 766 766 766 768 771 768 766 764 764 767 769 769 771 777 780 778 777 780 783 785 785 779 771 769 771 774 776 776 780 784 785 786 787 793 794 788 791 791 781 774 771 773 775 774 774 769 762 758 753 751 751 749 747 744 743 743 744 743 743 743 743 744
790 788 786 784 782 780 777 775 773 772 773 773 772 772 771 771 771 772 771 771 770 764 760 761 761 762 764 765 765 768 770 767 764 762 762 766 768 768 769 772 777 779 777 778 779 780 777 768 763 768 772 772 776 777 779 785 787 784 784 788 789 785 788 790 783 778 777 774 772 777 783 773 765 765 757 751 750 747 745 743 742 741 740 740 739 739 739 740
789 787 785 783 782 779 776 774 772 773 773 772 772 772 772 772 770 772 772 774 772 763 758 759 759 759 759 763 765 766 769 767 762 761 761 762 764 767 768 768 773 778 776 774 776 778 772 761 759 766 769 770 775 777 777 780 785 784 780 779 780 780 781 782 782 783 788 785 774 781 794 778 761 763 758 751 750 745 741 741 740 740 738 738 738 737 737 736
788 786 784 783 781 779 776 773 773 773 772 771 772 771 771 771 770 771 772 777 773 761 760 760 757 756 755 760 763 765 772 767 758 759 761 762 762 764 767 766 770 774 771 771 775 775 768 760 759 762 765 769 772 775 773 774 783 784 774 770 773 776 779 780 781 787 796 792 775 778 795 782 761 758 752 747 748 742 739 738 737 737 736 736 735 734 734 734
787 785 784 782 781 780 777 775 774 773 772 772 771 770 771 769 771 772 773 781 771 754 757 759 755 754 752 755 759 764 772 763 755 759 760 762 763 765 769 766 768 770 766 772 779 771 762 762 762 761 763 767 770 771 767 769 783 781 767 767 773 776 779 779 782 790 793 789 782 783 794 790 775 762 749 745 746 741 737 737 734 734 733 731 731 730 730 730
787 785 783 782 780 779 778 777 775 774 773 773 771 771 770 770 772 772 775 782 766 749 754 756 752 753 752 754 756 760 764 760 759 761 758 762 765 767 772 768 766 767 764 772 778 765 757 763 763 761 764 765 765 765 760 765 778 775 766 768 772 774 777 779 786 791 790 792 793 789 792 794 779 760 751 747 747 744 738 735 733 730 729 727 726 725 724 725
786 784 782 781 779 777 777 777 776 774 774 773 772 771 770 771 771 772 777 775 760 753 755 755 754 755 754 759 760 757 759 762 765 762 759 765 767 766 771 770 767 768 767 771 773 763 757 759 759 760 764 763 760 758 756 762 769 766 766 769 770 774 777 782 789 793 793 794 793 786 787 791 772 752 752 751 748 746 738 733 731 727 726 724 722 721 720 719
784 783 781 781 779 777 776 776 775 774 774 773 773 771 771 772 771 778 784 772 760 759 757 756 757 755 756 762 764 760 759 762 763 763 764 766 767 767 769 769 769 772 774 774 774 768 761 757 758 760 761 758 756 756 755 757 759 762 770 773 775 778 780 786 791 794 794 787 782 777 776 783 770 746 745 746 739 738 734 731 728 723 722 721 718 718 716 716
782 781 780 780 778 778 777 775 774 774 774 773 773 772 773 773 773 780 782 769 762 761 758 758 756 755 758 760 763 763 761 760 762 766 768 767 768 771 771 772 774 776 779 779 775 770 767 765 763 761 759 757 758 758 756 753 757 769 778 780 783 786 786 792 796 798 794 779 770 767 766 778 771 744 736 735 727 726 727 726 724 721 719 717 714 714 712 712
779 777 777 777 777 777 776 774 774 774 775 774 774 774 774 776 779 777 769 763 765 764 760 759 757 757 760 758 759 762 761 760 763 765 766 768 771 771 771 772 772 776 780 778 774 770 768 767 763 762 761 759 761 764 762 758 761 773 781 783 789 792 790 793 792 789 786 772 760 758 763 772 762 739 733 731 723 722 721 719 719 717 716 714 712 711 709 709
775 774 774 774 775 775 775 774 774 775 775 774 775 776 775 777 780 775 766 764 769 769 765 761 758 758 762 761 759 758 759 759 761 764 765 769 772 769 768 766 765 773 774 770 772 772 769 764 761 764 763 759 761 765 768 765 764 770 776 782 788 790 790 791 784 779 777 767 755 754 762 766 754 735 728 726 723 722 719 716 715 714 714 712 710 708 707 707
772 771 771 772 773 773 773 774 775 775 775 775 776 778 777 777 780 780 774 770 771 771 768 766 762 761 763 765 759 757 761 759 758 763 766 770 773 770 770 767 765 771 772 770 770 771 773 767 759 761 761 757 757 760 761 761 763 764 764 772 778 778 781 780 775 773 770 761 753 755 761 758 745 727 714 713 715 715 713 711 711 712 710 709 708 707 707 706
771 771 770 771 771 771 772 773 774 775 776 777 777 777 779 781 784 785 780 774 771 769 767 767 767 765 765 765 762 760 764 761 758 764 767 769 770 767 765 764 764 769 774 775 768 764 770 764 750 749 751 751 755 755 752 759 769 765 761 771 775 767 765 766 764 760 761 762 756 753 751 736 723 713 704 705 707 707 708 706 707 708 705 706 708 706 706 705
772 771 771 771 771 772 773 773 775 775 776 777 777 777 781 784 785 785 780 775 773 772 769 766 768 769 766 765 765 765 767 765 762 767 769 767 765 763 761 758 760 765 769 771 765 762 768 763 750 750 749 746 750 750 748 756 764 764 766 772 767 759 760 766 766 758 761 768 757 746 742 730 722 715 705 706 708 706 707 704 703 703 702 703 704 703 704 704
773 772 772 773 773 773 774 774 776 776 777 778 777 779 784 783 779 779 778 774 774 775 772 769 773 775 770 768 768 767 768 767 767 771 770 767 765 763 761 757 755 759 761 763 763 761 767 766 757 756 754 747 745 747 748 750 751 757 767 766 759 765 771 773 773 766 767 770 753 741 742 738 737 727 708 707 712 708 706 703 700 700 699 700 700 699 701 700
775 773 773 774 775 775 775 776 776 776 778 778 776 779 786 782 775 775 776 773 773 774 771 770 775 776 773 772 773 772 771 768 770 773 769 767 765 759 758 756 752 753 754 758 763 762 766 769 757 750 755 754 750 752 755 753 749 754 762 760 759 770 772 771 773 768 767 768 754 743 741 738 737 728 713 712 713 708 705 702 700 699 698 697 698 697 697 697
775 775 776 777 776 776 776 777 777 778 779 778 774 779 786 783 775 773 773 772 772 772 770 768 770 773 773 774 775 777 776 771 770 772 770 770 768 763 764 763 757 756 755 759 764 761 765 773 762 748 750 755 757 761 761 756 754 758 765 764 762 764 762 763 766 761 761 763 755 747 742 734 727 719 715 713 709 706 705 702 700 699 696 695 694 693 693 694
776 776 779 780 778 777 778 777 779 779 779 779 779 782 786 782 775 772 771 771 772 773 772 769 769 770 771 773 775 776 779 778 776 776 775 774 772 770 771 772 769 766 763 764 766 762 764 775 771 756 753 758 760 761 759 754 754 763 769 768 767 767 764 763 763 758 759 762 757 751 744 730 714 707 709 709 704 703 703 701 700 699 697 696 694 693 694 695
776 777 781 781 778 779 779 779 780 779 777 779 782 784 783 779 776 776 772 770 771 773 773 773 773 771 768 770 774 774 776 778 779 779 779 776 774 772 770 773 775 772 770 771 772 772 771 773 772 764 761 763 758 750 749 749 752 762 766 762 762 764 764 765 762 755 756 758 754 750 746 730 710 702 703 703 702 703 702 702 702 700 699 700 700 701 701 700
778 781 784 783 781 781 781 780 779 779 779 782 784 783 781 779 778 779 775 771 771 771 771 773 775 774 771 771 772 771 772 775 777 778 778 777 776 773 768 770 772 772 774 777 777 779 778 776 776 770 762 759 753 746 747 747 748 756 762 759 760 762 765 766 760 752 752 753 749 749 748 731 711 704 704 703 704 707 707 706 707 705 702 701 703 704 703 703
782 785 785 783 782 783 783 781 779 779 783 786 785 782 781 780 781 780 777 774 774 772 771 773 774 775 776 775 773 771 770 771 772 772 773 774 774 770 766 767 771 770 772 775 776 778 781 780 779 773 761 754 749 747 749 749 749 755 758 756 758 760 760 760 758 758 760 756 752 755 751 731 713 709 710 709 709 711 709 709 711 710 707 705 704 704 703 704
785 787 785 784 784 784 785 786 783 781 785 787 785 783 782 782 782 782 780 778 777 777 776 776 776 776 776 776 776 775 774 773 772 769 769 771 771 769 767 767 770 770 770 773 773 774 780 781 781 783 776 765 758 755 757 757 757 761 760 757 757 757 758 757 758 763 763 755 752 758 752 734 719 716 715 713 713 713 712 712 713 712 710 708 707 706 705 705
786 786 786 786 785 785 788 790 787 785 786 789 788 786 785 783 782 782 783 781 779 779 779 779 778 777 776 776 778 778 776 776 776 772 770 770 770 770 770 768 769 769 769 771 769 771 778 779 781 790 791 783 772 765 763 764 764 765 765 762 760 760 763 763 762 764 759 749 747 751 747 736 726 722 719 718 718 718 716 715 714 714 713 711 708 707 706 705
785 786 787 786 786 787 788 788 788 787 788 790 790 788 788 786 783 781 783 783 781 781 782 780 779 778 777 778 780 780 777 776 776 776 776 776 773 771 771 769 769 768 768 769 768 771 778 778 777 782 785 781 774 765 761 764 769 769 766 762 760 760 762 763 767 768 760 753 754 750 744 742 736 730 727 725 727 726 720 718 717 715 714 713 710 709 707 706
786 789 792 791 788 788 787 786 787 788 788 790 790 789 789 788 785 783 784 784 783 783 783 781 779 780 780 779 780 780 778 778 778 778 779 778 773 771 770 769 769 768 767 769 769 772 780 781 776 776 775 772 769 765 761 764 768 768 764 762 761 760 761 763 767 765 758 763 766 752 745 751 747 737 733 730 729 728 724 721 720 716 714 713 711 710 708 707
789 793 795 795 794 791 789 789 788 789 789 789 788 789 789 788 787 787 786 786 785 785 785 783 781 781 780 779 780 780 780 782 784 781 779 776 774 772 771 769 768 766 767 770 769 770 778 778 771 772 773 768 766 766 764 765 765 763 761 760 758 757 758 759 760 756 754 760 760 748 744 750 745 737 733 727 724 724 721 718 718 715 712 711 709 708 707 704
794 795 794 796 795 793 791 790 788 789 789 788 788 789 790 789 787 786 784 785 787 786 786 788 784 781 779 778 780 781 781 782 784 782 779 778 775 775 775 773 768 765 766 770 768 766 773 774 767 768 771 767 765 764 762 762 763 760 758 756 754 754 753 753 751 749 748 749 746 742 741 739 734 732 729 720 717 716 714 713 712 711 709 707 706 704 702 700
802 802 800 799 795 791 791 790 789 788 786 787 788 789 790 791 791 789 786 787 789 785 785 789 786 782 781 781 782 783 781 781 782 781 779 779 778 777 777 774 770 767 767 768 768 767 771 772 765 765 771 769 762 760 759 759 759 757 755 753 752 752 751 749 747 745 743 742 738 737 737 732 726 724 721 715 712 711 710 709 707 705 703 701 700 698 696 695
805 806 806 804 796 789 790 790 789 788 788 792 795 794 794 796 798 797 790 786 787 786 787 790 788 786 785 784 784 786 785 785 785 782 779 780 780 779 778 775 774 775 773 770 770 769 772 773 767 770 779 774 761 759 758 755 754 756 755 753 752 751 748 744 741 738 737 737 735 736 736 730 722 717 714 711 709 707 706 703 701 700 698 696 696 694 692 690
806 806 806 806 798 790 790 790 788 789 794 801 802 800 800 800 801 800 794 786 786 788 790 791 790 790 788 785 787 790 791 789 786 783 781 780 779 778 777 776 775 777 777 774 773 771 772 775 774 775 781 774 761 757 756 756 761 762 753 747 745 742 739 736 733 731 730 730 732 732 727 720 714 712 710 706 703 702 700 697 696 695 694 692 691 689 687 685
Wind_Speed
15 15 15 15 15 15 15 15 15 15 15 15 15 15 15 14 14 14 14 14 13 12 11 11 10 10 10 10 10 10 11 12 13 14 17 17 15 15 14 12 9 7 7 8 7 7 7 4 3 3 5 6 4 3 7 6 4 3 3 5 5 5 6 5 4 3 4 5 4 4 4 5 3 5 2 2 2 2 3 4 3 3 5 10 14 18 21 21
16 16 15 15 15 15 15 15 15 15 15 15 15 15 14 14 14 14 14 14 13 12 11 10 10 10 9 9 10 10 11 13 14 17 22 20 15 15 17 17 16 10 4 4 5 6 6 4 3 2 1 2 1 3 7 4 5 4 3 5 5 6 4 2 4 2 3 7 4 3 2 4 1 4 4 3 5 5 4 4 5 5 6 10 13 18 20 20
16 16 16 16 16 16 15 15 15 15 14 15 15 15 14 14 14 14 14 14 12 12 11 10 10 9 9 9 9 8 9 12 12 17 23 23 20 20 18 19 20 16 10 7 6 7 8 6 5 4 3 1 2 1 4 5 5 5 5 5 5 7 1 1 6 3 6 9 5 3 3 2 2 2 3 3 4 6 7 5 6 7 7 10 10 15 18 19
16 16 16 16 16 16 16 15 15 15 14 14 15 15 14 14 14 14 14 14 13 12 11 10 10 9 9 8 8 6 6 9 8 10 17 21 23 24 23 21 20 18 16 13 9 9 10 9 7 6 3 2 3 1 1 5 5 3 6 6 7 8 3 5 7 4 5 4 2 1 4 3 3 2 2 2 3 5 6 8 9 9 10 13 11 12 16 16
16 16 16 16 16 16 16 16 15 15 15 15 15 14 14 14 14 14 13 14 13 12 12 10 10 9 8 8 7 6 4 5 3 2 4 12 18 24 26 22 19 19 18 15 10 9 10 10 7 6 3 3 3 1 4 7 3 4 8 8 9 9 7 5 1 5 4 3 3 2 2 3 1 2 3 3 4 3 1 3 6 8 8 14 14 12 13 12
16 16 16 16 16 16 16 16 15 15 15 14 15 14 14 14 14 14 13 14 14 13 11 11 10 9 8 8 7 6 6 4 3 9 8 4 7 20 24 20 20 20 18 13 9 9 9 8 8 6 4 4 6 5 6 7 5 4 10 10 11 9 9 5 4 4 5 3 4 3 1 1 1 2 5 5 7 3 5 5 4 4 4 13 16 11 11 11
16 16 16 16 15 15 15 15 15 15 15 14 14 14 14 14 14 14 14 14 13 12 11 10 10 10 9 7 7 7 7 7 2 4 9 13 9 10 22 21 21 21 16 13 11 9 7 7 9 6 6 5 7 8 8 9 7 8 10 10 11 10 12 7 3 3 2 4 4 3 4 2 3 5 4 5 8 5 3 6 6 6 7 12 13 10 10 11
17 16 16 16 15 15 14 14 15 15 15 14 14 14 14 13 13 14 13 13 13 12 11 10 10 10 9 7 6 6 8 14 13 6 6 8 14 3 18 20 20 19 17 17 14 10 7 8 9 6 7 6 6 9 9 10 10 11 11 10 9 11 11 7 2 3 2 4 4 3 5 5 6 5 4 5 5 5 2 5 7 4 5 6 8 10 9 9
17 17 16 16 16 15 14 14 14 14 14 14 14 14 14 13 13 14 13 12 12 12 11 11 11 11 11 7 6 7 10 17 20 13 9 8 13 6 12 16 17 19 17 18 16 13 8 6 8 7 6 7 8 9 9 9 9 10 11 9 9 12 10 5 5 4 3 4 4 4 6 6 6 5 5 7 6 6 5 3 7 6 5 4 6 9 8 9
18 17 16 16 16 15 15 14 13 14 14 14 14 13 13 12 13 13 12 12 12 13 12 11 11 11 11 8 7 8 8 12 17 17 11 6 7 5 7 10 14 17 16 16 16 14 9 6 7 5 4 6 7 8 8 8 7 8 10 9 10 13 11 7 7 5 4 6 5 6 7 7 6 5 5 6 7 8 8 7 6 7 6 6 6 7 8 8
21 19 17 17 16 16 15 14 13 13 13 14 14 13 13 12 13 12 12 12 12 13 12 11 12 12 11 8 8 7 2 5 10 14 13 7 2 3 4 6 11 15 14 12 15 14 12 9 4 2 2 3 5 7 9 8 8 8 7 8 9 11 11 10 9 5 3 5 5 6 9 8 7 7 7 6 6 6 6 8 8 7 7 7 7 7 6 6
24 21 19 17 16 16 16 15 14 13 13 13 13 13 13 12 12 12 12 12 13 12 11 11 11 11 11 8 11 11 2 2 3 8 12 8 6 4 3 5 8 12 12 10 12 12 13 11 5 3 2 2 3 4 6 7 7 8 5 6 8 9 10 10 9 5 4 5 4 4 7 9 9 10 9 7 7 8 7 6 6 7 7 7 7 7 6 6
26 24 20 17 16 16 15 15 14 13 13 13 13 13 12 12 11 11 12 12 12 12 10 11 10 10 10 6 11 19 13 6 2 4 7 6 5 7 6 7 9 9 11 11 10 9 11 9 4 3 4 3 3 2 6 6 5 7 5 6 6 7 9 9 8 8 8 7 5 3 4 7 9 11 11 9 9 9 9 8 6 5 6 7 7 6 6 7
26 25 23 19 17 16 15 15 14 13 12 12 12 12 12 12 11 11 11 11 11 11 10 9 10 9 8 7 10 16 17 14 10 6 5 6 5 5 7 10 11 11 11 11 10 7 6 6 6 3 3 2 4 7 6 4 2 5 6 5 5 6 8 8 9 11 10 7 8 7 6 7 8 8 10 12 13 12 11 11 9 7 6 6 7 7 7 7
26 26 26 24 20 17 16 15 14 13 11 11 11 11 10 10 10 10 10 10 10 10 9 9 10 7 4 8 11 12 14 15 16 14 8 6 7 5 6 10 11 12 11 10 8 4 6 9 7 1 1 1 4 6 4 3 3 3 4 6 6 7 7 7 9 12 12 8 9 10 7 6 8 8 7 7 11 13 13 11 10 10 8 7 6 6 7 6
26 27 27 26 23 20 17 15 14 13 12 11 10 9 9 9 10 9 9 10 9 8 8 7 8 8 4 4 5 8 12 14 17 20 14 9 8 5 6 9 10 10 9 7 6 4 6 7 3 1 2 2 1 2 2 3 5 5 6 7 7 8 7 6 9 11 11 8 11 13 7 5 6 7 9 9 10 11 11 10 10 10 10 8 6 6 7 7
26 27 27 27 25 22 20 17 15 14 12 11 10 9 9 8 8 7 8 9 7 6 7 6 4 6 6 5 2 4 10 16 18 19 20 16 10 6 5 6 7 8 7 4 4 4 5 5 2 2 2 2 4 4 2 5 7 6 7 7 8 9 8 5 7 9 12 12 11 13 11 9 6 6 9 10 10 11 9 8 8 8 7 7 6 5 6 6
25 25 26 26 25 23 22 18 15 14 12 11 11 10 9 8 7 5 6 6 3 3 5 6 3 4 6 8 8 7 8 16 18 16 20 21 15 10 5 3 3 6 6 3 3 5 4 4 3 3 3 4 5 6 7 8 8 7 7 7 8 9 9 8 6 5 11 15 13 11 11 12 10 9 10 10 8 9 8 7 6 6 6 6 6 6 6 6
24 24 24 25 25 24 23 20 15 13 12 11 9 8 6 4 4 4 7 6 3 3 3 4 6 4 2 3 9 13 8 10 17 16 16 18 16 10 5 1 3 6 7 3 5 6 4 3 5 6 7 8 9 10 12 11 6 6 7 8 7 7 9 10 8 7 7 9 10 11 11 11 11 11 10 11 11 10 10 7 6 6 6 6 6 6 7 7
23 24 24 24 25 24 23 21 17 13 11 10 8 5 3 2 2 2 6 7 6 7 5 1 8 8 5 5 3 9 8 5 9 14 15 16 14 9 5 2 3 5 7 5 6 6 5 6 7 9 12 14 14 14 15 13 9 9 9 7 8 6 6 7 8 9 4 5 8 10 12 12 13 11 9 10 12 12 13 10 9 9 8 8 7 7 8 8
23 24 24 24 25 25 24 23 19 14 10 9 7 5 4 3 2 1 3 7 9 11 11 6 7 11 7 4 6 3 3 4 6 9 16 17 15 11 5 4 4 4 7 7 4 3 5 7 9 13 16 15 14 13 14 12 12 14 10 7 8 7 6 7 8 8 2 4 6 6 9 12 12 11 9 9 11 11 12 12 11 11 11 9 9 10 9 7
23 23 24 24 25 26 24 24 21 15 10 7 5 6 4 4 5 2 1 3 7 12 13 11 10 10 7 2 3 6 4 4 7 7 12 14 12 10 6 6 7 5 7 7 3 3 5 8 12 15 14 12 12 11 12 13 13 13 9 7 8 6 6 8 10 11 3 2 3 5 7 10 10 10 10 10 11 10 10 11 11 11 11 9 10 10 9 8
23 23 24 24 25 26 25 23 20 13 8 6 7 7 6 6 7 4 2 2 4 8 11 11 11 10 8 4 2 1 4 4 7 7 12 12 8 9 8 8 9 7 8 9 6 5 5 8 14 14 9 11 13 11 12 12 10 10 9 7 8 7 6 6 8 11 7 3 4 5 8 8 8 11 12 11 11 11 11 13 12 10 10 9 9 9 9 9
22 22 22 23 24 25 25 22 16 9 6 6 8 9 9 7 6 4 4 2 2 4 9 12 11 8 8 5 3 3 4 4 5 5 13 14 8 6 7 8 10 9 7 9 11 9 7 8 10 11 11 12 13 12 12 10 8 11 11 10 9 9 9 8 8 8 8 7 5 4 8 9 8 11 13 10 10 13 14 14 14 12 11 11 10 10 9 10
22 22 22 23 22 25 26 17 9 9 7 5 6 8 8 6 4 0 3 2 2 2 6 9 7 7 8 7 5 3 3 5 7 4 11 14 8 6 7 6 6 9 10 11 12 10 10 9 7 10 13 13 12 11 12 10 7 9 11 13 13 11 10 10 10 7 7 8 5 3 7 10 8 12 14 11 11 15 14 14 15 14 13 13 12 12 11 10
21 21 21 21 21 24 21 8 7 15 9 3 5 6 3 2 1 2 3 1 3 1 4 5 5 8 11 8 7 4 2 5 6 7 10 9 3 1 5 6 3 7 11 10 7 5 7 9 9 9 10 12 12 10 11 11 8 7 8 12 14 12 10 10 10 6 5 6 3 4 7 10 7 9 11 10 12 16 14 13 15 13 13 13 12 12 12 12
20 20 21 21 20 21 14 6 12 16 6 2 6 5 1 3 1 2 2 1 3 3 6 4 4 7 10 10 11 7 3 2 5 9 8 7 3 4 3 8 5 6 6 3 3 3 6 10 11 10 9 10 10 9 10 11 8 6 4 6 9 12 13 12 10 7 5 5 4 2 4 8 8 7 9 9 11 14 13 12 13 12 13 13 13 13 12 13
19 20 20 20 20 17 11 11 14 10 2 3 4 3 1 4 3 2 2 1 2 3 3 2 3 5 5 9 13 8 2 2 2 6 8 8 6 1 3 7 6 7 6 4 5 5 7 11 12 12 10 8 8 8 8 9 8 5 3 4 5 8 10 10 9 7 5 6 6 4 4 6 9 6 7 10 12 15 14 12 11 11 11 12 12 13 13 14
20 20 19 19 19 13 8 9 10 6 3 4 3 2 3 6 3 1 1 2 0 2 1 0 2 4 5 6 10 9 3 2 1 2 9 8 4 2 2 4 4 5 4 4 6 6 5 5 6 9 10 7 7 7 7 9 9 6 5 4 1 1 2 4 4 5 6 6 7 8 8 7 11 8 7 9 11 13 13 11 11 12 11 11 11 11 12 12
20 20 19 18 16 12 10 9 7 4 2 2 2 2 5 5 2 1 1 2 1 2 2 1 0 5 9 8 6 8 7 4 2 1 3 4 3 3 1 2 2 2 3 3 6 8 6 4 2 3 6 6 7 6 6 9 8 3 4 2 1 2 2 1 1 1 4 7 9 13 14 11 12 9 8 9 9 10 10 9 10 11 11 11 10 10 9 10
22 20 18 15 13 11 11 7 1 3 1 2 4 4 4 1 0 2 2 1 2 1 2 1 1 5 10 10 6 5 8 5 3 3 1 2 3 3 3 1 1 0 3 3 4 8 9 6 2 1 3 3 6 6 5 7 5 5 4 2 0 2 1 2 1 2 4 7 10 15 16 14 13 10 5 6 9 10 9 8 8 9 10 10 9 8 8 8
23 20 17 15 13 11 11 8 3 7 3 4 4 2 2 1 1 2 2 1 1 2 3 2 1 3 7 9 7 7 8 5 4 5 3 2 3 4 5 4 3 3 5 5 5 6 6 7 6 3 2 1 4 5 4 5 4 5 4 3 2 2 2 2 3 4 5 7 7 10 12 12 13 13 8 8 10 8 7 7 8 9 8 8 8 8 7 7
23 18 14 13 11 11 12 11 9 10 3 5 3 1 1 1 1 2 2 2 2 2 3 4 2 2 4 5 6 8 7 5 6 6 4 3 4 5 5 6 4 2 2 4 5 4 3 6 8 4 1 2 5 5 5 5 5 7 6 5 5 4 4 5 5 5 6 8 7 8 9 7 7 10 11 15 15 11 12 14 12 11 10 8 7 7 7 7
17 12 8 7 7 10 11 9 8 7 3 5 2 0 0 0 1 1 1 2 1 2 2 3 4 2 2 3 3 5 5 5 6 6 5 4 3 4 4 7 7 2 1 1 3 4 5 6 7 8 4 6 9 9 7 5 4 7 6 5 6 5 5 6 5 6 6 7 7 8 7 5 5 6 8 13 15 14 16 17 15 14 14 12 9 7 7 7
11 7 4 2 4 7 8 8 7 5 4 3 2 1 0 2 1 1 2 3 2 3 2 1 3 2 2 2 1 2 0 3 6 5 5 5 4 4 4 6 8 5 1 2 2 3 7 6 5 11 10 10 11 10 8 5 4 4 4 4 6 7 7 6 6 7 4 5 5 5 5 4 3 7 6 6 8 10 13 14 14 15 16 14 12 11 9 7
11 7 3 4 3 1 3 6 4 3 5 3 1 0 2 1 0 1 3 4 3 4 4 1 3 2 1 1 1 0 1 0 4 4 3 4 5 4 4 4 7 9 6 4 3 1 5 4 1 5 9 12 13 12 10 9 5 2 3 5 6 5 6 6 8 7 5 8 6 4 6 5 3 9 8 7 10 8 8 10 11 12 13 13 13 12 10 8
12 8 6 10 7 4 3 4 5 4 3 2 1 2 1 1 0 1 3 4 2 1 4 2 2 2 2 1 0 2 1 1 2 2 2 3 3 5 7 5 5 10 9 6 4 1 3 4 4 2 7 8 5 5 7 8 7 4 3 6 4 1 1 2 5 5 6 9 7 7 11 8 5 6 5 9 13 12 11 12 11 9 9 10 11 10 10 9
11 7 7 12 9 3 3 4 5 3 1 1 1 2 1 1 1 2 2 3 1 1 3 2 1 1 2 3 2 1 1 2 3 3 2 2 2 3 6 5 3 9 11 8 4 1 2 4 6 6 8 4 3 2 3 7 7 3 0 3 4 2 2 3 3 4 7 8 6 9 12 9 7 7 4 7 11 10 10 10 10 9 8 8 8 8 9 8
8 2 3 12 10 3 4 3 4 1 2 1 2 2 1 2 3 3 3 4 3 2 2 4 2 1 1 2 2 3 3 1 2 1 1 1 2 2 3 3 2 3 6 7 5 2 2 1 4 4 4 1 2 1 3 6 6 1 3 3 2 2 4 4 2 3 6 8 7 8 9 6 6 7 9 11 11 10 10 9 9 8 7 8 8 8 8 7
5 0 2 11 10 3 4 3 2 0 1 1 2 0 1 2 3 5 5 4 3 2 2 5 5 1 1 1 1 2 3 2 2 1 1 1 2 2 4 4 5 7 6 2 3 2 3 3 3 1 2 1 1 2 5 7 5 1 2 4 3 1 2 2 2 3 4 5 5 7 8 5 3 5 9 12 12 11 10 8 7 5 5 5 4 3 1 2
4 0 3 11 8 4 2 1 1 1 1 2 2 1 1 2 3 5 5 4 2 1 0 2 4 3 2 2 2 1 1 2 2 1 1 1 2 2 1 3 4 5 7 5 3 2 0 3 3 3 2 2 5 4 5 7 4 3 5 6 5 4 3 4 5 5 4 4 4 7 8 5 1 2 4 6 6 5 5 4 4 5 7 7 7 6 7 7
2 2 3 9 5 4 1 0 2 1 1 2 1 1 3 3 3 5 5 5 3 1 1 1 2 3 3 3 2 1 1 1 2 1 1 1 1 1 1 3 4 1 2 1 1 0 0 1 2 5 4 4 7 4 1 2 3 4 5 4 4 4 4 6 7 4 4 5 4 7 9 6 2 5 8 7 7 8 9 9 9 8 7 8 8 7 7 6
2 3 3 6 5 4 3 1 2 1 1 1 2 1 2 3 3 4 4 4 4 3 2 1 1 2 3 4 3 3 3 0 2 2 2 2 2 2 2 3 5 2 1 1 2 2 2 1 2 3 3 4 7 4 3 4 2 3 4 4 5 5 5 7 6 3 2 3 3 5 7 4 1 4 7 9 9 10 10 10 9 8 7 7 8 7 7 7
1 1 2 5 7 6 3 0 1 1 2 1 2 0 1 1 2 4 4 4 4 3 3 1 2 3 3 2 2 3 4 2 1 0 0 1 1 2 3 3 4 1 0 0 1 1 2 1 1 2 3 3 4 3 2 3 2 1 2 4 5 6 7 8 5 4 5 7 7 7 6 4 3 6 9 12 12 12 10 8 8 8 7 7 7 6 6 6
1 1 1 2 4 4 1 1 2 2 2 1 0 0 1 1 0 1 3 5 3 3 4 2 2 4 2 2 3 3 3 1 1 1 2 2 1 3 4 1 2 1 1 2 2 1 1 1 2 1 2 3 2 2 1 0 1 1 3 5 4 3 6 6 4 5 6 7 9 9 7 7 7 10 13 12 11 12 11 8 7 7 8 9 9 7 7 7
1 1 1 1 1 1 1 1 2 2 1 0 1 0 1 2 0 1 2 3 2 2 3 3 3 4 2 1 2 2 2 1 1 1 3 3 2 1 1 1 1 3 2 3 3 2 0 2 3 4 5 6 6 7 5 2 2 4 6 7 6 4 6 6 4 5 4 4 7 7 5 6 8 10 12 9 8 11 13 12 11 9 8 9 10 9 8 9
1 1 1 0 0 0 1 0 1 2 1 1 1 1 0 2 1 0 0 1 2 3 3 3 2 3 3 2 2 2 1 0 2 2 2 3 3 2 2 3 3 5 4 2 3 3 1 3 5 7 10 10 10 11 11 8 7 8 9 11 9 8 9 8 7 8 7 6 8 8 5 5 8 11 14 13 10 11 12 12 11 12 12 12 11 11 12 13
2 1 1 0 0 1 1 1 2 3 1 1 1 1 0 3 2 1 1 1 2 3 2 1 1 3 4 4 4 3 1 1 2 2 2 3 3 4 3 3 4 6 5 3 3 3 1 4 5 7 10 12 11 12 12 11 10 10 11 12 12 11 11 11 11 11 10 9 9 9 10 11 11 12 15 17 15 13 14 14 13 13 15 15 15 15 16 17
3 1 1 0 1 1 2 3 4 3 2 2 1 1 1 2 3 3 1 1 1 1 1 2 3 4 5 4 4 3 2 3 3 2 1 2 2 2 3 3 4 4 3 3 3 3 2 4 6 6 8 11 12 12 13 13 12 12 13 14 14 13 13 13 13 12 12 13 12 12 16 17 13 12 15 17 16 15 14 14 13 15 16 16 16 16 17 17
2 1 2 2 2 0 1 2 4 3 1 1 1 1 1 2 4 5 2 0 2 1 2 2 5 6 6 6 5 5 5 6 7 5 4 4 3 3 2 2 2 4 3 1 2 2 2 4 6 3 4 9 11 11 12 13 14 14 14 14 13 13 14 13 12 12 13 14 15 16 18 16 11 11 15 17 16 15 14 15 15 15 15 16 16 16 16 16
4 1 1 3 2 0 1 1 1 2 1 1 1 3 4 5 7 7 3 2 3 2 1 3 6 5 5 5 4 5 6 8 9 9 8 6 5 4 3 3 4 6 5 2 1 1 2 3 5 2 4 8 10 11 12 13 13 14 14 14 13 13 13 13 13 13 13 14 15 15 14 11 9 11 13 15 16 16 17 17 15 14 14 15 15 15 15 15
7 1 1 3 2 1 1 2 1 1 1 2 3 4 4 4 7 6 3 1 2 4 5 6 7 4 4 5 3 4 7 9 9 9 7 6 6 6 5 6 7 6 5 4 3 2 2 3 3 3 4 7 10 12 11 10 10 10 10 12 15 17 17 16 15 15 15 14 12 11 11 10 10 11 13 15 16 16 16 15 13 12 12 12 13 13 13 12
Wind_Direction
320 317 314 311 306 303 300 298 295 291 286 282 281 279 278 275 274 275 272 268 269 271 268 268 270 272 275 279 284 288 297 293 281 261 243 244 239 233 239 243 257 260 250 259 272 284 285 285 271 292 344 333 301 299 289 263 245 237 212 242 238 231 235 227 235 230 226 230 199 168 220 247 185 157 145 99 233 232 159 170 141 115 99 110 126 130 133 142
321 318 316 313 308 306 301 299 296 291 287 284 281 278 277 274 273 273 270 267 268 271 269 269 268 268 272 275 279 288 300 295 282 265 250 247 242 237 237 235 240 241 243 269 271 269 265 257 231 184 59 315 299 319 304 275 236 236 234 239 233 239 234 254 283 316 263 250 221 146 192 266 235 141 140 157 205 198 197 190 164 162 121 119 133 135 140 149
323 320 318 314 310 307 302 300 297 292 287 285 282 279 277 274 272 270 267 266 266 269 270 268 267 268 269 269 279 293 304 299 282 265 260 254 243 237 233 230 232 233 243 262 280 294 286 269 231 180 137 264 259 282 310 296 253 234 241 243 242 247 212 242 255 232 227 238 232 175 133 281 313 92 136 187 218 197 201 202 178 189 163 144 147 146 150 157
323 320 317 314 311 305 302 301 297 294 289 284 281 278 276 273 270 268 265 264 263 265 266 265 265 263 263 267 274 285 301 296 277 261 259 252 242 235 231 231 231 229 236 248 265 288 290 280 247 202 165 217 255 258 242 267 277 248 234 241 253 257 243 217 229 241 237 236 296 41 68 321 266 149 177 203 244 219 208 210 189 194 182 159 158 159 160 161
323 320 317 315 312 306 302 299 298 296 292 286 281 278 276 273 269 266 263 262 261 261 262 262 262 261 260 258 263 271 272 270 300 18 252 241 236 231 230 230 229 226 230 239 254 270 268 264 246 209 191 215 243 250 210 228 266 282 258 250 258 265 265 242 115 8 337 15 321 282 74 297 255 153 228 223 247 243 187 245 183 185 188 163 159 161 164 166
325 321 318 316 315 309 301 297 296 294 293 290 285 281 277 273 268 265 262 259 257 256 257 258 258 259 253 249 255 247 223 223 53 54 47 13 245 225 225 227 223 221 222 225 237 253 247 237 230 212 206 219 223 231 239 219 169 237 270 264 261 269 271 269 75 30 333 334 268 274 27 334 36 237 231 216 240 240 67 34 58 58 83 138 150 158 166 172
327 324 321 319 316 311 304 296 293 291 291 289 285 282 277 271 267 264 261 258 256 253 253 254 253 256 252 243 248 236 228 246 257 49 35 24 2 226 216 220 220 214 208 207 215 233 231 216 219 213 213 222 224 229 251 248 195 204 250 260 262 265 261 255 127 120 308 291 271 324 352 304 246 254 239 216 236 243 90 76 71 46 71 122 144 162 175 176
330 326 323 322 318 313 308 298 292 289 287 286 284 282 278 273 268 264 261 260 258 253 251 250 247 249 249 231 234 238 234 242 244 275 330 354 2 324 203 210 213 204 200 202 203 214 222 215 215 215 220 222 229 226 231 247 238 228 242 254 264 268 262 256 221 161 171 265 285 311 300 268 254 276 290 264 255 268 243 118 112 100 106 141 157 165 182 184
334 329 325 323 321 316 311 303 295 287 285 285 283 281 278 272 267 265 263 261 259 255 251 247 243 241 242 227 225 244 240 241 241 256 293 317 350 7 183 195 200 197 201 203 201 209 219 214 212 221 241 242 245 242 230 233 239 235 241 254 261 267 265 252 256 252 223 240 249 258 261 256 259 278 276 259 257 271 268 176 142 143 157 183 175 171 186 188
341 334 328 326 325 321 315 307 299 291 285 283 281 280 278 273 267 267 266 262 258 254 252 248 242 235 236 224 221 242 245 248 241 240 257 294 351 48 150 186 194 198 204 201 203 211 214 218 225 236 278 276 262 264 260 249 254 240 236 253 262 265 262 240 232 235 253 252 234 246 256 253 252 254 249 236 232 235 241 227 171 157 181 195 191 187 189 190
351 342 335 332 328 326 321 312 304 295 288 282 280 278 277 275 267 266 265 262 258 252 252 252 242 232 232 222 219 232 244 253 237 223 228 242 271 88 139 192 192 202 211 204 207 214 221 238 284 312 250 285 275 263 265 267 280 269 252 263 271 278 272 254 239 215 236 254 231 248 260 256 248 242 242 242 255 256 239 229 198 178 188 196 206 201 193 198
358 352 343 335 328 328 325 320 312 299 291 285 281 280 277 275 270 267 262 259 258 251 250 253 243 232 233 231 228 226 228 299 234 209 215 230 247 227 201 195 185 204 220 219 216 214 229 253 325 348 264 303 266 249 277 283 276 273 283 276 271 282 273 256 251 233 228 238 225 260 267 251 241 238 240 237 254 274 276 259 226 203 194 193 205 203 196 202
358 356 350 340 331 329 328 323 318 306 295 287 282 282 278 276 272 265 258 255 256 251 248 250 244 236 235 239 239 232 236 258 242 213 212 210 228 223 211 199 194 211 223 231 236 219 224 238 237 256 333 328 257 317 316 297 262 248 257 267 266 270 258 244 245 239 232 227 209 233 267 245 239 232 226 224 229 240 248 251 252 240 215 198 198 198 194 194
354 355 354 349 339 332 328 323 320 312 299 289 285 283 279 277 272 262 259 259 258 252 248 248 236 231 233 243 252 239 237 244 242 242 221 190 187 191 201 204 207 219 223 230 245 239 203 170 153 212 326 301 299 337 314 272 233 239 244 245 243 250 248 229 227 230 229 216 189 209 248 244 247 242 219 212 213 217 227 229 226 236 240 215 194 192 194 187
349 351 353 353 348 338 330 325 322 316 303 293 285 283 281 278 272 265 263 262 261 253 251 251 227 216 244 254 255 245 234 236 235 233 226 202 193 188 199 205 210 218 221 224 234 229 168 139 115 165 232 181 309 323 304 242 212 206 228 236 225 235 250 236 228 227 224 213 190 205 243 242 240 259 258 237 216 210 219 225 218 218 229 229 209 194 195 192
343 345 349 350 350 345 336 328 323 317 309 299 287 282 280 276 269 264 263 257 253 249 242 241 218 210 251 266 238 231 220 220 227 226 223 219 213 213 198 195 206 211 208 211 219 194 154 148 124 188 191 120 213 255 286 255 223 197 215 234 228 231 244 235 229 228 225 220 202 205 228 245 226 234 249 258 249 230 220 222 222 216 218 225 224 208 198 196
341 341 343 346 348 348 343 332 323 321 316 305 292 278 270 271 266 260 265 255 250 252 229 228 214 204 245 281 255 211 201 209 218 216 217 221 220 216 195 185 197 192 174 155 186 185 164 165 151 163 188 184 179 180 206 225 217 208 212 230 238 236 244 237 217 214 219 223 213 209 224 241 252 257 250 247 249 249 237 226 229 225 222 226 230 231 223 207
340 339 340 342 342 345 346 338 325 322 317 309 298 278 265 264 261 256 257 242 237 258 229 235 232 195 243 257 240 227 206 205 209 208 212 215 220 223 200 193 198 166 160 142 169 184 179 176 176 189 198 199 190 186 206 213 210 214 210 220 235 232 245 253 244 224 217 219 215 213 227 237 244 256 261 264 261 257 247 230 233 239 233 233 233 237 242 235
338 339 340 339 338 340 344 342 330 321 318 315 297 270 261 265 262 249 231 216 195 207 215 204 193 204 280 246 227 230 226 209 202 200 204 203 206 209 166 168 249 178 169 175 186 188 178 166 179 203 211 209 202 196 209 211 209 242 242 236 240 231 237 243 252 264 239 226 223 221 235 243 241 238 238 251 256 258 255 235 226 241 244 242 236 233 234 238
336 338 338 337 337 335 338 341 335 324 322 317 293 260 232 211 220 234 212 207 212 226 259 225 192 235 301 18 302 222 208 237 214 191 193 188 175 165 136 124 251 206 187 181 181 182 177 187 197 207 212 211 205 201 213 213 209 246 264 268 272 264 257 251 249 252 215 214 237 231 240 246 247 248 239 241 242 242 249 242 230 231 235 241 242 240 233 230
334 335 336 336 336 333 333 337 336 326 317 310 289 262 235 215 216 219 191 207 217 225 254 267 216 246 279 356 349 296 192 251 245 196 190 179 155 156 160 162 207 221 210 197 163 159 186 200 208 212 216 217 211 206 217 217 211 229 244 258 271 270 276 290 291 285 202 186 250 257 259 257 251 254 255 260 256 244 242 242 237 233 228 228 235 243 241 232
330 332 334 335 335 333 330 329 332 326 311 298 263 242 257 321 345 347 170 224 225 214 231 248 237 254 277 304 352 336 323 225 220 206 186 175 161 175 171 165 203 210 204 204 157 158 205 216 217 215 215 219 223 215 215 220 218 227 233 237 251 254 268 285 290 292 301 142 272 288 278 269 264 262 256 258 264 261 254 248 244 241 236 226 222 234 238 234
329 330 332 333 333 333 329 324 324 318 301 277 248 246 266 311 346 338 288 278 257 216 217 232 233 241 255 241 131 307 283 228 216 197 178 183 184 190 178 172 206 217 201 202 193 189 203 222 222 219 216 216 222 218 214 221 224 227 227 228 240 237 244 263 265 275 284 262 267 281 278 269 265 266 257 251 258 263 260 256 251 246 245 238 226 226 227 229
328 329 330 331 332 332 329 322 321 316 289 269 262 272 284 301 346 337 280 278 276 225 211 218 225 233 232 219 160 190 249 247 245 193 169 182 181 181 195 183 196 218 216 205 206 215 223 225 215 209 217 221 220 218 215 220 227 229 226 223 233 229 222 232 246 264 277 268 264 286 285 270 249 255 258 253 252 252 248 248 248 244 244 246 240 234 228 228
328 327 329 331 332 332 330 323 338 343 310 282 288 291 288 306 8 313 251 286 274 223 197 206 217 223 204 174 154 181 272 256 250 209 171 187 181 165 199 192 190 214 216 212 213 225 234 233 212 197 207 217 221 222 217 215 224 232 226 222 229 232 228 230 236 246 260 255 226 200 264 267 238 238 249 246 242 244 241 238 239 238 236 239 240 237 234 234
328 326 329 332 331 334 334 331 351 339 322 310 334 326 279 268 43 227 238 285 265 200 148 172 180 188 183 166 149 149 259 256 222 175 170 198 211 54 209 189 180 218 211 214 222 229 232 234 234 219 206 207 215 222 217 214 226 233 220 218 227 236 239 237 234 227 238 254 222 168 239 265 253 231 238 238 237 240 237 234 236 235 233 232 233 233 230 233
329 327 329 332 332 335 335 316 325 328 326 352 337 343 286 202 151 256 242 248 247 157 133 162 174 176 177 163 147 151 232 239 170 163 165 199 213 5 263 190 177 214 200 198 229 206 207 220 228 228 217 209 212 220 212 201 217 241 210 192 216 229 235 237 235 229 229 263 283 160 213 268 265 237 240 246 250 251 243 236 235 232 232 230 228 226 222 224
328 326 327 329 327 327 310 294 312 320 350 18 353 353 225 185 179 214 196 239 247 120 133 182 147 154 165 154 153 169 250 59 157 168 142 173 189 76 250 212 205 211 182 170 213 203 199 214 220 218 221 220 214 221 208 191 212 233 136 132 194 219 232 238 237 240 237 247 255 211 175 265 263 236 236 243 249 258 257 250 246 241 236 231 226 223 218 218
326 323 325 326 323 324 311 290 292 304 3 37 21 352 154 165 194 230 177 246 7 48 298 300 111 152 147 146 170 192 196 95 249 151 121 151 173 103 222 252 267 239 206 201 230 231 210 218 228 222 224 224 217 219 205 199 216 209 131 119 193 161 193 238 234 233 237 236 237 215 189 234 263 245 228 233 234 247 257 257 255 251 246 241 233 226 221 218
325 319 320 323 321 327 329 304 275 278 339 67 57 78 139 165 210 104 147 262 43 16 291 45 54 179 153 150 182 207 209 185 172 78 112 160 146 111 218 297 341 287 257 245 256 263 274 321 347 238 239 237 232 227 212 213 212 147 89 92 350 23 62 13 27 162 236 238 232 224 205 215 258 251 220 236 238 236 248 253 249 246 243 241 236 228 222 214
322 314 311 311 309 316 316 308 357 14 341 113 89 113 147 192 276 163 198 238 46 336 290 81 192 170 159 165 167 194 213 205 159 148 166 162 146 158 197 199 96 181 244 245 259 260 269 286 297 303 311 285 248 234 233 234 196 106 78 123 65 321 355 4 42 149 231 240 225 225 216 213 245 251 215 239 242 225 230 240 243 243 237 236 231 225 221 211
318 309 300 293 290 290 279 264 313 346 337 141 114 124 184 154 176 246 265 14 2 327 350 3 214 170 180 185 169 177 197 192 176 183 176 163 173 178 193 191 159 192 225 222 235 240 247 247 231 247 334 314 244 224 226 248 198 143 141 162 183 217 204 215 212 202 230 244 226 213 209 213 242 254 244 248 249 237 244 250 248 251 247 239 232 227 225 213
320 310 295 285 275 262 259 260 284 313 297 170 158 9 240 187 219 285 340 354 325 316 344 345 327 199 194 204 183 177 190 190 172 173 176 197 214 204 205 209 192 209 225 200 224 234 237 230 210 207 260 202 216 212 206 215 202 188 172 170 195 202 219 224 221 231 237 244 234 195 196 217 247 252 237 239 246 250 260 260 256 261 265 257 242 234 237 228
330 322 303 283 256 241 247 251 266 283 239 179 184 338 213 329 346 305 342 347 316 272 296 341 339 301 190 243 216 164 190 214 176 167 182 189 217 218 211 216 208 203 43 188 231 218 226 235 193 181 178 181 203 217 212 199 205 209 190 189 207 204 229 233 222 236 243 253 234 190 194 210 214 236 222 222 229 226 237 246 246 250 254 255 253 246 247 242
352 350 334 292 233 234 236 230 244 250 192 179 212 243 46 48 17 306 342 345 306 305 320 60 1 314 202 243 298 86 266 219 171 174 200 192 206 214 204 206 197 179 124 222 245 210 227 250 196 191 190 177 196 216 211 209 244 231 185 201 221 217 232 250 249 245 260 281 244 194 223 224 223 267 249 220 232 219 223 235 232 234 238 241 248 247 242 237
4 0 43 64 80 157 209 206 210 195 185 212 246 73 44 52 359 307 338 336 323 328 329 37 52 351 246 162 146 132 355 294 166 173 210 210 221 227 227 223 191 183 179 198 234 198 212 255 342 196 204 192 196 205 196 196 215 203 182 213 222 224 232 248 264 266 273 271 249 212 251 258 273 274 252 244 268 258 239 241 231 226 225 227 235 240 237 228
358 4 58 50 51 95 135 167 165 164 196 257 344 71 75 170 308 339 322 322 321 329 324 342 46 356 340 42 158 193 166 105 145 161 178 194 218 220 224 240 191 185 191 198 236 221 173 259 309 268 233 221 198 201 207 215 215 197 208 218 210 307 319 226 255 255 244 252 245 228 244 246 246 256 222 226 251 253 246 248 246 236 224 224 230 233 231 224
339 353 45 29 28 95 124 149 151 144 234 261 104 87 68 260 326 2 325 313 306 287 333 9 42 307 23 30 355 16 116 156 146 162 182 182 209 200 211 237 197 189 200 198 218 269 108 268 266 227 228 250 40 57 250 257 243 211 257 242 224 257 229 201 234 242 236 249 251 239 244 239 233 250 253 233 242 251 249 248 250 245 233 231 231 228 228 224
313 314 43 11 9 90 117 123 135 134 263 281 79 83 20 289 307 2 1 335 333 317 333 8 8 313 52 27 351 27 31 68 119 152 221 233 261 6 8 314 268 216 214 198 208 217 128 243 259 211 195 192 48 72 223 245 244 184 35 327 286 263 215 208 232 245 241 250 254 249 246 232 218 233 253 257 261 272 277 277 269 257 247 240 224 216 221 225
313 332 52 3 3 95 120 115 123 321 255 52 45 51 305 296 324 358 359 344 350 360 348 355 359 24 86 71 91 52 38 51 53 18 5 326 298 16 21 7 360 351 354 334 242 223 163 198 238 296 32 60 219 178 192 219 230 208 238 246 242 247 267 287 268 228 235 244 248 253 248 232 198 204 228 245 254 259 266 275 279 294 313 303 282 257 257 44
312 61 25 358 10 106 114 138 146 318 295 84 72 106 330 338 352 344 338 346 352 353 81 3 357 1 14 40 84 76 64 95 82 80 86 352 9 39 77 65 34 348 9 18 329 336 246 218 221 251 279 229 233 217 202 217 211 190 222 229 229 230 243 263 245 212 212 229 234 255 256 244 266 295 263 258 272 296 313 325 338 353 5 8 12 23 36 46
319 59 6 353 26 92 352 250 132 360 30 47 21 16 349 345 357 335 329 353 357 300 143 69 3 355 12 19 37 57 22 116 146 152 165 190 124 229 255 95 107 185 50 62 249 114 183 272 266 249 240 245 258 261 245 217 192 196 214 214 231 242 231 242 248 238 231 233 233 258 261 247 250 297 307 320 342 355 351 357 8 4 8 21 24 28 34 39
38 49 14 360 30 29 330 168 127 113 88 2 301 340 3 347 345 330 324 346 355 343 346 41 10 356 24 6 343 5 6 344 176 172 163 168 178 234 274 100 115 139 114 195 227 184 178 253 294 268 270 271 264 274 15 33 93 206 224 207 209 219 218 232 253 278 259 232 236 262 263 249 250 311 316 323 332 335 335 350 6 359 2 15 13 14 17 16
31 38 35 14 20 11 338 100 63 101 112 346 293 108 37 317 326 322 323 340 352 345 333 23 31 360 25 19 347 360 351 336 124 352 49 138 87 40 42 95 129 165 181 120 276 239 222 260 18 329 312 292 258 260 333 6 37 193 258 267 248 239 243 246 252 258 250 241 244 256 261 261 310 321 308 305 311 315 322 346 1 351 348 350 349 357 359 352
294 157 104 28 22 25 40 42 357 35 97 67 319 58 264 257 281 285 308 323 324 329 329 354 1 330 343 37 25 2 341 351 104 338 355 16 45 56 47 102 170 205 161 116 80 42 237 222 107 99 279 266 247 245 229 216 317 324 309 292 280 255 254 260 258 247 248 244 240 246 259 266 278 288 287 297 320 326 324 332 339 336 334 328 324 332 339 336
290 49 88 121 67 49 167 188 332 348 47 34 280 323 267 265 172 172 279 296 298 317 309 303 322 311 289 303 352 344 313 245 210 312 350 333 299 63 53 219 219 241 207 137 116 92 46 239 184 188 228 240 247 260 266 260 263 279 280 272 267 263 260 268 275 263 275 286 261 263 289 289 282 286 290 307 333 322 312 315 320 319 316 312 309 313 320 321
314 14 39 34 107 111 225 211 345 335 348 313 303 110 216 286 297 34 232 273 347 350 305 278 296 297 291 302 314 294 223 242 332 315 287 273 279 279 227 210 233 244 231 190 174 148 146 253 216 209 230 238 243 258 271 276 270 265 264 261 259 257 252 251 255 258 273 289 276 278 296 286 279 287 292 295 296 289 288 293 298 298 295 293 291 292 293 292
28 35 114 264 340 57 20 325 333 331 302 282 317 112 356 318 323 320 233 159 11 344 304 287 292 276 284 295 303 309 333 22 338 288 268 272 297 304 278 260 255 234 212 194 189 162 199 255 228 216 240 248 248 254 263 266 264 259 256 255 253 247 241 240 245 248 249 256 263 272 272 265 265 272 277 279 276 270 271 272 273 275 276 277 276 275 275 274
28 25 97 207 283 10 3 325 320 320 274 251 251 142 220 301 305 301 290 155 320 299 205 260 300 299 297 301 302 295 296 310 296 253 239 258 267 298 306 291 274 243 210 205 217 182 186 254 247 231 247 256 251 250 252 253 256 255 251 251 252 251 249 249 252 251 249 253 258 261 260 258 257 258 264 269 270 266 267 267 265 265 266 267 267 264 263 264
21 17 351 313 280 291 34 326 313 308 281 227 221 76 18 350 343 335 339 277 282 260 156 241 301 323 334 338 328 308 311 328 323 311 308 299 298 312 284 260 300 310 292 257 254 216 187 254 269 262 268 268 260 255 250 246 250 253 253 252 252 256 257 255 254 253 252 254 252 250 254 257 256 251 255 260 265 267 267 264 262 260 259 260 260 260 261 261
7 87 10 317 287 130 149 261 290 295 360 47 10 5 17 29 9 341 311 222 264 294 15 344 334 341 332 315 311 324 346 349 336 330 333 327 322 326 310 303 328 323 304 289 300 251 214 273 295 301 274 269 268 264 260 257 255 254 255 255 253 253 252 248 245 242 242 249 251 250 252 255 253 250 251 253 256 260 261 261 260 258 258 259 260 260 260 259
5 67 11 307 282 72 27 319 299 273 24 45 23 9 8 17 14 355 327 343 9 22 27 2 347 342 309 301 317 342 342 333 322 322 327 317 306 301 295 291 291 290 285 288 295 251 217 255 283 269 262 269 269 266 268 271 264 255 247 243 242 243 244 244 245 244 243 247 251 253 252 250 250 252 253 252 251 252 256 259 261 262 262 260 259 259 259 260